Вернуться в каталог

STARLINK-1913

АктивенСвязьVLEO
NORAD 47179·PAYLOAD·🇺🇸 United States

Запущен Nov 25, 2020 с Cape Canaveral Space Force Station

Loading…

Ближайшие Пролёты (ближайшие 24 часа)

TLE

СвежийSource: CelesTrak SupGP

Эпоха: Sep 15, 2026, 01:52 UTC

1 47179C 20088BK  26258.07826389  .00089697  00000+0  20005-2 0  2587
2 47179  53.1529 140.5263 0002020  97.9292  70.4454 15.42943843    16

Отслеживайте STARLINK-1913 в реальном времени с AllMySat

Download on the App Store